Time,TemperatureF,DewpointF,PressureIn,WindDirection,WindDirectionDegrees,WindSpeedMPH,WindSpeedGustMPH,Humidity,HourlyPrecipIn,Conditions,Clouds,dailyrainin,SoftwareType,DateUTC
2013-04-24 00:00:00,43.1,37.7,30.05,NNW,344,0.0,0.0,81,0.00,,---,0.00,VWS V13.01,2013-04-24 04:00:00,
2013-04-24 00:01:00,43.1,37.7,30.05,NNW,344,0.0,0.0,81,0.00,,---,0.00,VWS V13.01,2013-04-24 04:01:00,
2013-04-24 00:06:00,42.9,37.5,30.05,NNW,344,0.0,0.0,81,0.00,,---,0.00,VWS V13.01,2013-04-24 04:06:00,
2013-04-24 00:11:00,42.5,37.1,30.05,NNW,344,0.0,0.0,81,0.00,,---,0.00,VWS V13.01,2013-04-24 04:11:00,
2013-04-24 00:16:00,42.2,37.1,30.04,NNW,344,0.0,0.0,82,0.00,,---,0.00,VWS V13.01,2013-04-24 04:16:00,
2013-04-24 00:21:00,41.9,37.1,30.04,NNW,344,0.0,0.0,83,0.00,,---,0.00,VWS V13.01,2013-04-24 04:21:00,
2013-04-24 00:26:00,41.8,37.3,30.04,NNW,344,0.0,0.0,84,0.00,,---,0.00,VWS V13.01,2013-04-24 04:26:00,
2013-04-24 00:31:00,41.6,37.1,30.03,NNW,344,0.0,0.0,84,0.00,,---,0.00,VWS V13.01,2013-04-24 04:31:00,
2013-04-24 00:36:00,41.6,37.1,30.03,NNW,344,0.0,0.0,84,0.00,,---,0.00,VWS V13.01,2013-04-24 04:36:00,
2013-04-24 00:41:00,41.3,37.1,30.03,NNW,344,0.0,0.0,85,0.00,,---,0.00,VWS V13.01,2013-04-24 04:41:00,
2013-04-24 00:46:00,40.9,36.8,30.04,NNW,344,0.0,0.0,85,0.00,,---,0.00,VWS V13.01,2013-04-24 04:46:00,
2013-04-24 00:51:00,40.6,36.8,30.04,NNW,344,0.0,0.0,86,0.00,,---,0.00,VWS V13.01,2013-04-24 04:51:00,
2013-04-24 00:56:00,40.5,36.9,30.04,NNW,344,0.0,0.0,87,0.00,,---,0.00,VWS V13.01,2013-04-24 04:56:00,
2013-04-24 01:01:00,40.5,36.9,30.03,NNW,344,0.0,0.0,87,0.00,,---,0.00,VWS V13.01,2013-04-24 05:01:00,
2013-04-24 01:06:00,40.5,36.9,30.03,NNW,344,0.0,0.0,87,0.00,,---,0.00,VWS V13.01,2013-04-24 05:06:00,
2013-04-24 01:11:00,40.2,36.9,30.03,NNW,344,0.0,0.0,88,0.00,,---,0.00,VWS V13.01,2013-04-24 05:11:00,
2013-04-24 01:16:00,39.9,36.6,30.02,NNW,344,0.0,0.0,88,0.00,,---,0.00,VWS V13.01,2013-04-24 05:16:00,
2013-04-24 01:21:00,39.8,36.5,30.02,NNW,344,0.0,0.0,88,0.00,,---,0.00,VWS V13.01,2013-04-24 05:21:00,
2013-04-24 01:26:00,39.6,36.6,30.02,NNW,344,0.0,0.0,89,0.00,,---,0.00,VWS V13.01,2013-04-24 05:26:00,
2013-04-24 01:31:00,39.3,36.6,30.02,NNW,344,0.0,0.0,90,0.00,,---,0.00,VWS V13.01,2013-04-24 05:31:00,
2013-04-24 01:36:00,39.1,36.4,30.02,NNW,344,0.0,0.0,90,0.00,,---,0.00,VWS V13.01,2013-04-24 05:36:00,
2013-04-24 01:41:00,39.1,36.7,30.02,NNW,344,0.0,0.0,91,0.00,,---,0.00,VWS V13.01,2013-04-24 05:41:00,
2013-04-24 01:46:00,38.8,36.4,30.02,NNW,344,0.0,0.0,91,0.00,,---,0.00,VWS V13.01,2013-04-24 05:46:00,
2013-04-24 01:51:00,38.8,36.4,30.02,NNW,344,0.0,0.0,91,0.00,,---,0.00,VWS V13.01,2013-04-24 05:51:00,
2013-04-24 01:56:00,38.6,36.2,30.02,NNW,344,0.0,0.0,91,0.00,,---,0.00,VWS V13.01,2013-04-24 05:56:00,
2013-04-24 02:01:00,38.6,36.5,30.02,NNW,344,0.0,0.0,92,0.00,,---,0.00,VWS V13.01,2013-04-24 06:01:00,
2013-04-24 02:06:00,38.5,36.4,30.02,NNW,344,0.0,0.0,92,0.00,,---,0.00,VWS V13.01,2013-04-24 06:06:00,
2013-04-24 02:11:00,38.5,36.4,30.02,NNW,344,0.0,0.0,92,0.00,,---,0.00,VWS V13.01,2013-04-24 06:11:00,
2013-04-24 02:16:00,38.8,36.7,30.01,NNW,344,0.0,0.0,92,0.00,,---,0.00,VWS V13.01,2013-04-24 06:16:00,
2013-04-24 02:21:00,38.5,36.4,30.01,NNW,344,0.0,0.0,92,0.00,,---,0.00,VWS V13.01,2013-04-24 06:21:00,
2013-04-24 02:26:00,38.3,36.2,30.01,NNW,344,0.0,0.0,92,0.00,,---,0.00,VWS V13.01,2013-04-24 06:26:00,
2013-04-24 02:31:00,38.3,36.2,30.00,NNW,344,0.0,0.0,92,0.00,,---,0.00,VWS V13.01,2013-04-24 06:31:00,
2013-04-24 02:36:00,38.6,36.8,30.00,NNW,344,0.0,0.0,93,0.00,,---,0.00,VWS V13.01,2013-04-24 06:36:00,
2013-04-24 02:41:00,38.9,37.0,30.00,NNW,344,0.0,0.0,93,0.00,,---,0.00,VWS V13.01,2013-04-24 06:41:00,
2013-04-24 02:46:00,39.3,37.5,29.99,NNW,344,0.0,0.0,93,0.00,,---,0.00,VWS V13.01,2013-04-24 06:46:00,
2013-04-24 02:51:00,39.3,37.2,29.99,NNW,344,0.0,0.0,92,0.00,,---,0.00,VWS V13.01,2013-04-24 06:51:00,
2013-04-24 02:56:00,39.3,37.2,29.99,NNW,344,0.0,0.0,92,0.00,,---,0.00,VWS V13.01,2013-04-24 06:56:00,
2013-04-24 03:01:00,39.2,37.1,29.98,NNW,344,0.0,0.0,92,0.00,,---,0.00,VWS V13.01,2013-04-24 07:01:00,
2013-04-24 03:06:00,38.9,36.8,29.98,NNW,344,0.0,0.0,92,0.00,,---,0.00,VWS V13.01,2013-04-24 07:06:00,
2013-04-24 03:11:00,38.5,36.4,29.98,NNW,344,0.0,0.0,92,0.00,,---,0.00,VWS V13.01,2013-04-24 07:11:00,
2013-04-24 03:16:00,38.8,36.7,29.98,NNW,344,0.0,0.0,92,0.00,,---,0.00,VWS V13.01,2013-04-24 07:16:00,
2013-04-24 03:21:00,39.1,37.0,29.98,NNW,344,0.0,0.0,92,0.00,,---,0.00,VWS V13.01,2013-04-24 07:21:00,
2013-04-24 03:26:00,38.9,36.8,29.98,NNW,344,0.0,0.0,92,0.00,,---,0.00,VWS V13.01,2013-04-24 07:26:00,
2013-04-24 03:31:00,38.9,36.8,29.99,NNW,344,0.0,0.0,92,0.00,,---,0.00,VWS V13.01,2013-04-24 07:31:00,
2013-04-24 03:36:00,38.3,35.9,29.99,NNW,344,0.0,0.0,91,0.00,,---,0.00,VWS V13.01,2013-04-24 07:36:00,
2013-04-24 03:41:00,37.9,35.5,29.99,NNW,344,0.0,0.0,91,0.00,,---,0.00,VWS V13.01,2013-04-24 07:41:00,
2013-04-24 03:46:00,37.6,35.5,29.99,NNW,344,0.0,0.0,92,0.00,,---,0.00,VWS V13.01,2013-04-24 07:46:00,
2013-04-24 03:51:00,37.3,35.2,29.99,NNW,344,0.0,0.0,92,0.00,,---,0.00,VWS V13.01,2013-04-24 07:51:00,
2013-04-24 03:56:00,37.2,35.1,29.99,NNW,344,0.0,0.0,92,0.00,,---,0.00,VWS V13.01,2013-04-24 07:56:00,
2013-04-24 04:01:00,37.2,35.4,29.98,NNW,344,0.0,0.0,93,0.00,,---,0.00,VWS V13.01,2013-04-24 08:01:00,
2013-04-24 04:06:00,37.6,35.8,29.98,NNW,344,0.0,0.0,93,0.00,,---,0.00,VWS V13.01,2013-04-24 08:06:00,
2013-04-24 04:11:00,37.6,35.8,29.98,NNW,344,0.0,0.0,93,0.00,,---,0.00,VWS V13.01,2013-04-24 08:11:00,
2013-04-24 04:16:00,37.3,35.2,29.99,NNW,344,0.0,0.0,92,0.00,,---,0.00,VWS V13.01,2013-04-24 08:16:00,
2013-04-24 04:21:00,37.0,34.9,29.99,NNW,344,0.0,0.0,92,0.00,,---,0.00,VWS V13.01,2013-04-24 08:21:00,
2013-04-24 04:26:00,37.0,35.2,29.99,NNW,344,0.0,0.0,93,0.00,,---,0.00,VWS V13.01,2013-04-24 08:26:00,
2013-04-24 04:31:00,37.2,35.4,29.98,NNW,344,0.0,0.0,93,0.00,,---,0.00,VWS V13.01,2013-04-24 08:31:00,
2013-04-24 04:36:00,37.0,35.2,29.98,NNW,344,0.0,0.0,93,0.00,,---,0.00,VWS V13.01,2013-04-24 08:36:00,
2013-04-24 04:41:00,37.3,35.7,29.98,NNW,344,0.0,0.0,94,0.00,,---,0.00,VWS V13.01,2013-04-24 08:41:00,
2013-04-24 04:46:00,37.2,35.4,29.99,NNW,344,0.0,0.0,93,0.00,,---,0.00,VWS V13.01,2013-04-24 08:46:00,
2013-04-24 04:51:00,37.5,35.9,29.99,NW,310,0.0,4.0,94,0.00,,---,0.00,VWS V13.01,2013-04-24 08:51:00,
2013-04-24 04:56:00,37.8,36.2,29.99,NW,310,0.0,4.0,94,0.00,,---,0.00,VWS V13.01,2013-04-24 08:56:00,
2013-04-24 05:01:00,37.5,35.7,29.99,NW,310,0.0,0.0,93,0.00,,---,0.00,VWS V13.01,2013-04-24 09:01:00,
2013-04-24 05:06:00,37.2,35.4,29.99,NW,310,0.0,0.0,93,0.00,,---,0.00,VWS V13.01,2013-04-24 09:06:00,
2013-04-24 05:11:00,36.9,35.1,29.99,NW,310,0.0,0.0,93,0.00,,---,0.00,VWS V13.01,2013-04-24 09:11:00,
2013-04-24 05:16:00,36.8,35.0,29.99,NW,310,0.0,0.0,93,0.00,,---,0.00,VWS V13.01,2013-04-24 09:16:00,
2013-04-24 05:21:00,36.5,34.7,29.99,NW,310,0.0,0.0,93,0.00,,---,0.00,VWS V13.01,2013-04-24 09:21:00,
2013-04-24 05:26:00,36.0,34.2,29.99,NW,310,0.0,0.0,93,0.00,,---,0.00,VWS V13.01,2013-04-24 09:26:00,
2013-04-24 05:31:00,36.0,34.4,29.99,NW,310,0.0,0.0,94,0.00,,---,0.00,VWS V13.01,2013-04-24 09:31:00,
2013-04-24 05:36:00,36.0,34.4,29.99,NW,310,0.0,0.0,94,0.00,,---,0.00,VWS V13.01,2013-04-24 09:36:00,
2013-04-24 05:41:00,36.0,34.4,29.99,NW,310,0.0,0.0,94,0.00,,---,0.00,VWS V13.01,2013-04-24 09:41:00,
2013-04-24 05:46:00,36.3,34.7,29.99,NW,310,0.0,0.0,94,0.00,,---,0.00,VWS V13.01,2013-04-24 09:46:00,
2013-04-24 05:51:00,36.3,34.7,29.99,NW,310,0.0,0.0,94,0.00,,---,0.00,VWS V13.01,2013-04-24 09:51:00,
2013-04-24 05:56:00,36.3,34.7,29.99,NW,310,0.0,0.0,94,0.00,,---,0.00,VWS V13.01,2013-04-24 09:56:00,
2013-04-24 06:01:00,36.6,35.3,29.99,NW,310,0.0,0.0,95,0.00,,---,0.00,VWS V13.01,2013-04-24 10:01:00,
2013-04-24 06:06:00,36.9,35.6,29.99,NW,310,0.0,0.0,95,0.00,,---,0.00,VWS V13.01,2013-04-24 10:06:00,
2013-04-24 06:11:00,37.0,35.7,29.99,NW,310,0.0,0.0,95,0.00,,---,0.00,VWS V13.01,2013-04-24 10:11:00,
2013-04-24 06:16:00,37.2,35.9,29.99,NW,310,0.0,0.0,95,0.00,,---,0.00,VWS V13.01,2013-04-24 10:16:00,
2013-04-24 06:21:00,37.3,36.0,29.99,NW,310,0.0,0.0,95,0.00,,---,0.00,VWS V13.01,2013-04-24 10:21:00,
2013-04-24 06:26:00,37.6,36.6,29.99,NW,310,0.0,0.0,96,0.00,,---,0.00,VWS V13.01,2013-04-24 10:26:00,
2013-04-24 06:31:00,38.0,36.7,29.99,NW,310,0.0,0.0,95,0.00,,---,0.00,VWS V13.01,2013-04-24 10:31:00,
2013-04-24 06:36:00,38.2,36.9,29.99,NW,310,0.0,0.0,95,0.00,,---,0.00,VWS V13.01,2013-04-24 10:36:00,
2013-04-24 06:41:00,38.2,36.9,29.99,NW,310,0.0,0.0,95,0.00,,---,0.00,VWS V13.01,2013-04-24 10:41:00,
2013-04-24 06:46:00,38.2,36.9,30.00,NW,310,0.0,0.0,95,0.00,,---,0.00,VWS V13.01,2013-04-24 10:46:00,
2013-04-24 06:51:00,38.5,37.2,30.00,NW,310,0.0,0.0,95,0.00,,---,0.00,VWS V13.01,2013-04-24 10:51:00,
2013-04-24 06:56:00,38.5,37.2,30.00,NW,310,0.0,0.0,95,0.00,,---,0.00,VWS V13.01,2013-04-24 10:56:00,
2013-04-24 07:01:00,38.6,37.3,30.00,NW,310,0.0,0.0,95,0.00,,---,0.00,VWS V13.01,2013-04-24 11:01:00,
2013-04-24 07:05:00,38.9,37.6,30.00,NW,310,0.0,0.0,95,0.00,,---,0.00,VWS V13.01,2013-04-24 11:05:00,
2013-04-24 07:10:00,39.1,37.8,30.00,NW,310,0.0,0.0,95,0.00,,---,0.00,VWS V13.01,2013-04-24 11:10:00,
2013-04-24 07:15:00,39.2,37.9,30.00,NW,310,0.0,0.0,95,0.00,,---,0.00,VWS V13.01,2013-04-24 11:15:00,
2013-04-24 07:20:00,39.3,38.0,30.00,NW,310,0.0,0.0,95,0.00,,---,0.00,VWS V13.01,2013-04-24 11:20:00,
2013-04-24 07:25:00,39.6,38.3,30.00,NW,310,0.0,0.0,95,0.00,,---,0.00,VWS V13.01,2013-04-24 11:25:00,
2013-04-24 07:30:00,40.1,38.8,29.99,NW,310,0.0,0.0,95,0.00,,---,0.00,VWS V13.01,2013-04-24 11:30:00,
2013-04-24 07:35:00,40.6,39.0,29.99,NW,309,0.0,0.0,94,0.00,,---,0.00,VWS V13.01,2013-04-24 11:35:00,
2013-04-24 07:40:00,41.1,39.5,29.99,NW,309,0.0,0.0,94,0.00,,---,0.00,VWS V13.01,2013-04-24 11:40:00,
2013-04-24 07:45:00,41.6,40.0,29.99,NW,309,0.0,0.0,94,0.00,,---,0.00,VWS V13.01,2013-04-24 11:45:00,
2013-04-24 07:50:00,42.3,40.4,29.99,NW,309,0.0,0.0,93,0.00,,---,0.00,VWS V13.01,2013-04-24 11:50:00,
2013-04-24 07:55:00,42.8,40.6,29.99,NW,309,0.0,0.0,92,0.00,,---,0.00,VWS V13.01,2013-04-24 11:55:00,
2013-04-24 08:00:00,43.5,41.0,29.99,NW,309,0.0,0.0,91,0.00,,---,0.00,VWS V13.01,2013-04-24 12:00:00,
2013-04-24 08:05:00,44.1,41.1,29.99,NW,309,0.0,0.0,89,0.00,,---,0.00,VWS V13.01,2013-04-24 12:05:00,
2013-04-24 08:10:00,44.8,41.5,29.99,NW,309,0.0,0.0,88,0.00,,---,0.00,VWS V13.01,2013-04-24 12:10:00,
2013-04-24 08:15:00,45.4,41.8,29.99,NW,309,0.0,2.0,87,0.00,,---,0.00,VWS V13.01,2013-04-24 12:15:00,
2013-04-24 08:20:00,45.7,41.5,29.99,NW,309,0.0,3.0,85,0.00,,---,0.00,VWS V13.01,2013-04-24 12:20:00,
2013-04-24 08:25:00,46.2,41.6,29.99,NW,309,0.0,3.0,84,0.00,,---,0.00,VWS V13.01,2013-04-24 12:25:00,
2013-04-24 08:30:00,47.0,41.8,29.98,NW,309,0.0,0.0,82,0.00,,---,0.00,VWS V13.01,2013-04-24 12:30:00,
2013-04-24 08:35:00,47.6,42.1,29.98,NW,309,0.0,0.0,81,0.00,,---,0.00,VWS V13.01,2013-04-24 12:35:00,
2013-04-24 08:40:00,48.2,42.0,29.98,NW,309,3.0,4.0,79,0.00,,---,0.00,VWS V13.01,2013-04-24 12:40:00,
2013-04-24 08:45:00,48.6,41.7,29.98,WNW,294,6.0,6.0,77,0.00,,---,0.00,VWS V13.01,2013-04-24 12:45:00,
2013-04-24 08:50:00,49.2,42.3,29.98,SW,228,0.0,7.0,77,0.00,,---,0.00,VWS V13.01,2013-04-24 12:50:00,
2013-04-24 08:55:00,49.6,42.0,29.98,WNW,282,0.0,7.0,75,0.00,,---,0.00,VWS V13.01,2013-04-24 12:55:00,
2013-04-24 09:00:00,50.2,42.6,29.97,WNW,288,3.0,5.0,75,0.00,,---,0.00,VWS V13.01,2013-04-24 13:00:00,
2013-04-24 09:05:00,50.7,43.1,29.97,NW,313,5.0,5.0,75,0.00,,---,0.00,VWS V13.01,2013-04-24 13:05:00,
2013-04-24 09:10:00,51.0,43.0,29.97,WSW,257,0.0,6.0,74,0.00,,---,0.00,VWS V13.01,2013-04-24 13:10:00,
2013-04-24 09:15:00,51.3,43.3,29.97,WNW,292,1.0,7.0,74,0.00,,---,0.00,VWS V13.01,2013-04-24 13:15:00,
2013-04-24 09:20:00,51.7,43.7,29.97,WNW,286,1.0,7.0,74,0.00,,---,0.00,VWS V13.01,2013-04-24 13:20:00,
2013-04-24 09:25:00,52.2,43.8,29.97,WNW,297,0.0,7.0,73,0.00,,---,0.00,VWS V13.01,2013-04-24 13:25:00,
2013-04-24 09:30:00,52.6,43.8,29.96,SSW,213,2.0,4.0,72,0.00,,---,0.00,VWS V13.01,2013-04-24 13:30:00,
2013-04-24 09:35:00,52.6,44.2,29.96,SW,230,3.0,6.0,73,0.00,,---,0.00,VWS V13.01,2013-04-24 13:35:00,
2013-04-24 09:40:00,52.9,44.5,29.96,WNW,286,4.0,9.0,73,0.00,,---,0.00,VWS V13.01,2013-04-24 13:40:00,
2013-04-24 09:45:00,53.3,43.8,29.96,SW,228,1.0,7.0,70,0.00,,---,0.00,VWS V13.01,2013-04-24 13:45:00,
2013-04-24 09:50:00,53.9,44.7,29.96,WNW,300,0.0,7.0,71,0.00,,---,0.00,VWS V13.01,2013-04-24 13:50:00,
2013-04-24 09:55:00,54.2,44.3,29.96,SW,221,0.0,7.0,69,0.00,,---,0.00,VWS V13.01,2013-04-24 13:55:00,
2013-04-24 10:00:00,55.1,45.1,29.96,West,271,0.0,7.0,69,0.00,,---,0.00,VWS V13.01,2013-04-24 14:00:00,
2013-04-24 10:05:00,54.8,44.1,29.96,SSW,212,5.0,11.0,67,0.00,,---,0.00,VWS V13.01,2013-04-24 14:05:00,
2013-04-24 10:10:00,55.3,45.3,29.96,SW,217,1.0,12.0,69,0.00,,---,0.00,VWS V13.01,2013-04-24 14:10:00,
2013-04-24 10:15:00,55.7,45.7,29.95,SW,221,4.0,6.0,69,0.00,,---,0.00,VWS V13.01,2013-04-24 14:15:00,
2013-04-24 10:20:00,56.2,46.2,29.95,SSW,209,0.0,7.0,69,0.00,,---,0.00,VWS V13.01,2013-04-24 14:20:00,
2013-04-24 10:25:00,56.5,45.3,29.95,NW,306,0.0,7.0,66,0.00,,---,0.00,VWS V13.01,2013-04-24 14:25:00,
2013-04-24 10:30:00,56.7,45.5,29.94,WNW,283,4.0,7.0,66,0.00,,---,0.00,VWS V13.01,2013-04-24 14:30:00,
2013-04-24 10:35:00,57.2,46.8,29.94,WSW,240,0.0,7.0,68,0.00,,---,0.00,VWS V13.01,2013-04-24 14:35:00,
2013-04-24 10:40:00,57.5,45.8,29.94,NW,312,6.0,7.0,65,0.00,,---,0.00,VWS V13.01,2013-04-24 14:40:00,
2013-04-24 10:45:00,57.8,46.1,29.94,SW,231,0.0,5.0,65,0.00,,---,0.00,VWS V13.01,2013-04-24 14:45:00,
2013-04-24 10:50:00,58.4,45.9,29.94,West,276,0.0,9.0,63,0.00,,---,0.00,VWS V13.01,2013-04-24 14:50:00,
2013-04-24 10:55:00,58.6,46.1,29.94,WSW,240,3.0,11.0,63,0.00,,---,0.00,VWS V13.01,2013-04-24 14:55:00,
2013-04-24 11:00:00,58.9,45.9,29.94,WNW,286,4.0,6.0,62,0.00,,---,0.00,VWS V13.01,2013-04-24 15:00:00,
2013-04-24 11:05:00,59.0,46.0,29.94,NW,309,5.0,11.0,62,0.00,,---,0.00,VWS V13.01,2013-04-24 15:05:00,
2013-04-24 11:10:00,59.3,46.7,29.94,WNW,288,1.0,13.0,63,0.00,,---,0.00,VWS V13.01,2013-04-24 15:10:00,
2013-04-24 11:15:00,59.5,46.9,29.93,WNW,284,0.0,10.0,63,0.00,,---,0.00,VWS V13.01,2013-04-24 15:15:00,
2013-04-24 11:20:00,59.8,46.3,29.93,WNW,292,3.0,13.0,61,0.00,,---,0.00,VWS V13.01,2013-04-24 15:20:00,
2013-04-24 11:25:00,60.1,46.6,29.93,NW,305,5.0,13.0,61,0.00,,---,0.00,VWS V13.01,2013-04-24 15:25:00,
2013-04-24 11:30:00,60.5,47.4,29.92,NW,313,5.0,9.0,62,0.00,,---,0.00,VWS V13.01,2013-04-24 15:30:00,
2013-04-24 11:35:00,60.7,47.2,29.92,SW,218,0.0,10.0,61,0.00,,---,0.00,VWS V13.01,2013-04-24 15:35:00,
2013-04-24 11:40:00,60.9,46.5,29.92,SSW,209,2.0,11.0,59,0.00,,---,0.00,VWS V13.01,2013-04-24 15:40:00,
2013-04-24 11:45:00,61.2,48.1,29.91,SW,217,4.0,9.0,62,0.00,,---,0.00,VWS V13.01,2013-04-24 15:45:00,
2013-04-24 11:50:00,61.3,46.9,29.91,WNW,285,3.0,12.0,59,0.00,,---,0.00,VWS V13.01,2013-04-24 15:50:00,
2013-04-24 11:55:00,61.6,47.6,29.91,WSW,243,7.0,12.0,60,0.00,,---,0.00,VWS V13.01,2013-04-24 15:55:00,
2013-04-24 12:00:00,61.5,46.6,29.90,WNW,301,4.0,13.0,58,0.00,,---,0.00,VWS V13.01,2013-04-24 16:00:00,
2013-04-24 12:05:00,61.6,48.0,29.90,South,181,6.0,13.0,61,0.00,,---,0.00,VWS V13.01,2013-04-24 16:05:00,
2013-04-24 12:10:00,62.1,48.1,29.90,SW,217,6.0,13.0,60,0.00,,---,0.00,VWS V13.01,2013-04-24 16:10:00,
2013-04-24 12:15:00,62.6,48.5,29.90,WNW,290,3.0,9.0,60,0.00,,---,0.00,VWS V13.01,2013-04-24 16:15:00,
2013-04-24 12:20:00,62.7,47.7,29.90,SSW,210,3.0,12.0,58,0.00,,---,0.00,VWS V13.01,2013-04-24 16:20:00,
2013-04-24 12:25:00,63.2,47.7,29.90,WNW,288,6.0,12.0,57,0.00,,---,0.00,VWS V13.01,2013-04-24 16:25:00,
2013-04-24 12:30:00,63.4,49.3,29.88,West,276,2.0,9.0,60,0.00,,---,0.00,VWS V13.01,2013-04-24 16:30:00,
2013-04-24 12:35:00,63.5,48.5,29.88,WNW,298,2.0,11.0,58,0.00,,---,0.00,VWS V13.01,2013-04-24 16:35:00,
2013-04-24 12:40:00,64.5,49.9,29.88,SW,219,2.0,11.0,59,0.00,,---,0.00,VWS V13.01,2013-04-24 16:40:00,
2013-04-24 12:45:00,65.2,50.1,29.87,SSW,213,0.0,3.0,58,0.00,,---,0.00,VWS V13.01,2013-04-24 16:45:00,
2013-04-24 12:50:00,64.8,49.2,29.87,NW,313,3.0,9.0,57,0.00,,---,0.00,VWS V13.01,2013-04-24 16:50:00,
2013-04-24 12:55:00,65.2,50.1,29.87,WNW,300,3.0,11.0,58,0.00,,---,0.00,VWS V13.01,2013-04-24 16:55:00,
2013-04-24 13:00:00,64.8,48.8,29.86,SW,215,5.0,6.0,56,0.00,,---,0.00,VWS V13.01,2013-04-24 17:00:00,
2013-04-24 13:05:00,65.0,49.9,29.86,SW,221,2.0,7.0,58,0.00,,---,0.00,VWS V13.01,2013-04-24 17:05:00,
2013-04-24 13:10:00,65.3,49.2,29.86,SSW,206,5.0,9.0,56,0.00,,---,0.00,VWS V13.01,2013-04-24 17:10:00,
2013-04-24 13:15:00,65.0,50.3,29.85,SSW,213,4.0,7.0,59,0.00,,---,0.00,VWS V13.01,2013-04-24 17:15:00,
2013-04-24 13:20:00,65.5,49.4,29.85,WNW,293,2.0,10.0,56,0.00,,---,0.00,VWS V13.01,2013-04-24 17:20:00,
2013-04-24 13:25:00,66.0,50.8,29.85,SSW,201,5.0,10.0,58,0.00,,---,0.00,VWS V13.01,2013-04-24 17:25:00,
2013-04-24 13:30:00,65.5,49.9,29.85,SW,218,7.0,10.0,57,0.00,,---,0.00,VWS V13.01,2013-04-24 17:30:00,
2013-04-24 13:35:00,65.6,50.4,29.85,SW,223,10.0,12.0,58,0.00,,---,0.00,VWS V13.01,2013-04-24 17:35:00,
2013-04-24 13:40:00,66.3,50.6,29.85,SW,214,2.0,12.0,57,0.00,,---,0.00,VWS V13.01,2013-04-24 17:40:00,
2013-04-24 13:45:00,66.1,49.5,29.84,SW,230,4.0,7.0,55,0.00,,---,0.00,VWS V13.01,2013-04-24 17:45:00,
2013-04-24 13:50:00,66.8,50.6,29.84,SW,220,2.0,9.0,56,0.00,,---,0.00,VWS V13.01,2013-04-24 17:50:00,
2013-04-24 13:55:00,66.9,49.7,29.84,South,184,2.0,9.0,54,0.00,,---,0.00,VWS V13.01,2013-04-24 17:55:00,
2013-04-24 14:00:00,67.4,51.2,29.83,SW,236,9.0,9.0,56,0.00,,---,0.00,VWS V13.01,2013-04-24 18:00:00,
2013-04-24 14:05:00,66.9,50.7,29.83,SSW,197,7.0,10.0,56,0.00,,---,0.00,VWS V13.01,2013-04-24 18:05:00,
2013-04-24 14:10:00,67.3,50.6,29.83,SW,219,4.0,10.0,55,0.00,,---,0.00,VWS V13.01,2013-04-24 18:10:00,
2013-04-24 14:15:00,67.6,50.4,29.82,SSW,200,5.0,11.0,54,0.00,,---,0.00,VWS V13.01,2013-04-24 18:15:00,
2013-04-24 14:20:00,67.1,50.4,29.82,SW,227,5.0,12.0,55,0.00,,---,0.00,VWS V13.01,2013-04-24 18:20:00,
2013-04-24 14:25:00,67.8,52.0,29.82,SW,219,4.0,12.0,57,0.00,,---,0.00,VWS V13.01,2013-04-24 18:25:00,
2013-04-24 14:30:00,68.1,51.8,29.81,WNW,284,2.0,7.0,56,0.00,,---,0.00,VWS V13.01,2013-04-24 18:30:00,
2013-04-24 14:35:00,68.8,52.0,29.81,South,179,5.0,10.0,55,0.00,,---,0.00,VWS V13.01,2013-04-24 18:35:00,
2013-04-24 14:40:00,68.3,52.0,29.81,SSW,192,8.0,11.0,56,0.00,,---,0.00,VWS V13.01,2013-04-24 18:40:00,
2013-04-24 14:45:00,68.8,52.5,29.80,WSW,243,4.0,6.0,56,0.00,,---,0.00,VWS V13.01,2013-04-24 18:45:00,
2013-04-24 14:50:00,69.1,52.3,29.80,SW,215,4.0,12.0,55,0.00,,---,0.00,VWS V13.01,2013-04-24 18:50:00,
2013-04-24 14:55:00,68.9,51.6,29.80,SSW,198,4.0,12.0,54,0.00,,---,0.00,VWS V13.01,2013-04-24 18:55:00,
2013-04-24 15:00:00,69.1,54.2,29.79,South,172,4.0,7.0,59,0.00,,---,0.00,VWS V13.01,2013-04-24 19:00:00,
2013-04-24 15:05:00,69.4,53.0,29.79,SSW,211,3.0,10.0,56,0.00,,---,0.00,VWS V13.01,2013-04-24 19:05:00,
2013-04-24 15:10:00,69.4,51.5,29.79,SW,226,6.0,12.0,53,0.00,,---,0.00,VWS V13.01,2013-04-24 19:10:00,
2013-04-24 15:15:00,69.3,52.0,29.79,South,183,4.0,9.0,54,0.00,,---,0.00,VWS V13.01,2013-04-24 19:15:00,
2013-04-24 15:20:00,69.6,53.2,29.79,SE,139,6.0,11.0,56,0.00,,---,0.00,VWS V13.01,2013-04-24 19:20:00,
2013-04-24 15:25:00,69.6,51.2,29.79,SW,224,9.0,12.0,52,0.00,,---,0.00,VWS V13.01,2013-04-24 19:25:00,
2013-04-24 15:30:00,69.8,52.4,29.77,SSW,211,5.0,11.0,54,0.00,,---,0.00,VWS V13.01,2013-04-24 19:30:00,
2013-04-24 15:35:00,70.3,52.4,29.77,SSW,211,3.0,11.0,53,0.00,,---,0.00,VWS V13.01,2013-04-24 19:35:00,
2013-04-24 15:40:00,70.8,51.8,29.77,WSW,244,12.0,12.0,51,0.00,,---,0.00,VWS V13.01,2013-04-24 19:40:00,
2013-04-24 15:45:00,70.9,51.9,29.76,SSW,208,4.0,6.0,51,0.00,,---,0.00,VWS V13.01,2013-04-24 19:45:00,
2013-04-24 15:50:00,71.3,51.7,29.76,WSW,249,4.0,8.0,50,0.00,,---,0.00,VWS V13.01,2013-04-24 19:50:00,
2013-04-24 15:55:00,71.5,51.9,29.76,SSW,209,6.0,10.0,50,0.00,,---,0.00,VWS V13.01,2013-04-24 19:55:00,
2013-04-24 16:00:00,71.1,51.5,29.76,SW,231,9.0,11.0,50,0.00,,---,0.00,VWS V13.01,2013-04-24 20:00:00,
2013-04-24 16:05:00,70.8,52.8,29.76,SSW,211,2.0,11.0,53,0.00,,---,0.00,VWS V13.01,2013-04-24 20:05:00,
2013-04-24 16:10:00,71.1,52.1,29.76,SSW,207,6.0,12.0,51,0.00,,---,0.00,VWS V13.01,2013-04-24 20:10:00,
2013-04-24 16:15:00,71.1,51.5,29.76,SW,228,5.0,12.0,50,0.00,,---,0.00,VWS V13.01,2013-04-24 20:15:00,
2013-04-24 16:20:00,71.1,51.5,29.76,SW,215,10.0,15.0,50,0.00,,---,0.00,VWS V13.01,2013-04-24 20:20:00,
2013-04-24 16:25:00,70.9,51.3,29.76,SSW,202,6.0,15.0,50,0.00,,---,0.00,VWS V13.01,2013-04-24 20:25:00,
2013-04-24 16:30:00,70.8,52.3,29.75,SW,229,4.0,8.0,52,0.00,,---,0.00,VWS V13.01,2013-04-24 20:30:00,
2013-04-24 16:35:00,70.6,51.6,29.75,SW,230,11.0,12.0,51,0.00,,---,0.00,VWS V13.01,2013-04-24 20:35:00,
2013-04-24 16:40:00,70.8,51.8,29.75,SSW,213,8.0,15.0,51,0.00,,---,0.00,VWS V13.01,2013-04-24 20:40:00,
2013-04-24 16:45:00,70.9,51.9,29.75,SSW,213,9.0,15.0,51,0.00,,---,0.00,VWS V13.01,2013-04-24 20:45:00,
2013-04-24 16:50:00,70.8,51.8,29.75,SSW,204,4.0,15.0,51,0.00,,---,0.00,VWS V13.01,2013-04-24 20:50:00,
2013-04-24 16:55:00,70.9,51.3,29.75,SW,215,3.0,15.0,50,0.00,,---,0.00,VWS V13.01,2013-04-24 20:55:00,
2013-04-24 17:00:00,70.9,51.3,29.75,SW,226,3.0,10.0,50,0.00,,---,0.00,VWS V13.01,2013-04-24 21:00:00,
2013-04-24 17:05:00,70.6,52.7,29.75,SW,214,3.0,10.0,53,0.00,,---,0.00,VWS V13.01,2013-04-24 21:05:00,
2013-04-24 17:10:00,70.3,51.9,29.75,SW,227,5.0,11.0,52,0.00,,---,0.00,VWS V13.01,2013-04-24 21:10:00,
2013-04-24 17:15:00,70.1,51.7,29.74,SSW,213,6.0,10.0,52,0.00,,---,0.00,VWS V13.01,2013-04-24 21:15:00,
2013-04-24 17:20:00,69.8,51.9,29.74,SSW,212,7.0,10.0,53,0.00,,---,0.00,VWS V13.01,2013-04-24 21:20:00,
2013-04-24 17:25:00,69.6,52.2,29.74,SSW,202,5.0,10.0,54,0.00,,---,0.00,VWS V13.01,2013-04-24 21:25:00,
2013-04-24 17:30:00,69.6,52.7,29.73,SW,235,2.0,3.0,55,0.00,,---,0.00,VWS V13.01,2013-04-24 21:30:00,
2013-04-24 17:35:00,69.8,52.4,29.73,South,179,0.0,7.0,54,0.00,,---,0.00,VWS V13.01,2013-04-24 21:35:00,
2013-04-24 17:40:00,69.8,52.9,29.73,South,178,3.0,10.0,55,0.00,,---,0.00,VWS V13.01,2013-04-24 21:40:00,
2013-04-24 17:45:00,69.6,52.7,29.71,South,186,5.0,14.0,55,0.00,,---,0.00,VWS V13.01,2013-04-24 21:45:00,
2013-04-24 17:50:00,69.6,52.7,29.71,SSW,201,3.0,14.0,55,0.00,,---,0.00,VWS V13.01,2013-04-24 21:50:00,
2013-04-24 17:55:00,69.4,52.5,29.71,SSW,207,0.0,14.0,55,0.00,,---,0.00,VWS V13.01,2013-04-24 21:55:00,
2013-04-24 18:00:00,69.3,52.0,29.72,SW,227,3.0,10.0,54,0.00,,---,0.00,VWS V13.01,2013-04-24 22:00:00,
2013-04-24 18:05:00,69.3,52.5,29.72,SW,223,0.0,11.0,55,0.00,,---,0.00,VWS V13.01,2013-04-24 22:05:00,
2013-04-24 18:10:00,68.9,52.6,29.72,SSW,213,5.0,12.0,56,0.00,,---,0.00,VWS V13.01,2013-04-24 22:10:00,
2013-04-24 18:15:00,68.8,52.5,29.72,SSW,209,4.0,17.0,56,0.00,,---,0.00,VWS V13.01,2013-04-24 22:15:00,
2013-04-24 18:20:00,68.6,52.8,29.72,SW,221,3.0,17.0,57,0.00,,---,0.00,VWS V13.01,2013-04-24 22:20:00,
2013-04-24 18:25:00,68.4,52.6,29.72,SW,221,11.0,17.0,57,0.00,,---,0.00,VWS V13.01,2013-04-24 22:25:00,
2013-04-24 18:30:00,68.4,52.1,29.72,SSW,207,6.0,20.0,56,0.00,,---,0.00,VWS V13.01,2013-04-24 22:30:00,
2013-04-24 18:35:00,68.3,52.5,29.72,SSW,205,3.0,20.0,57,0.00,,---,0.00,VWS V13.01,2013-04-24 22:35:00,
2013-04-24 18:40:00,67.9,52.6,29.72,SSW,198,2.0,20.0,58,0.00,,---,0.00,VWS V13.01,2013-04-24 22:40:00,
2013-04-24 18:45:00,67.8,52.5,29.73,SSW,198,5.0,12.0,58,0.00,,---,0.00,VWS V13.01,2013-04-24 22:45:00,
2013-04-24 18:50:00,67.6,52.8,29.73,SSW,206,4.0,14.0,59,0.00,,---,0.00,VWS V13.01,2013-04-24 22:50:00,
2013-04-24 18:55:00,67.4,52.6,29.73,SW,233,4.0,14.0,59,0.00,,---,0.00,VWS V13.01,2013-04-24 22:55:00,
2013-04-24 19:00:00,67.4,52.6,29.71,SW,232,6.0,7.0,59,0.00,,---,0.00,VWS V13.01,2013-04-24 23:00:00,
2013-04-24 19:05:00,67.6,52.3,29.71,WSW,244,10.0,12.0,58,0.00,,---,0.00,VWS V13.01,2013-04-24 23:05:00,
2013-04-24 19:10:00,67.8,52.0,29.71,SW,221,4.0,15.0,57,0.00,,---,0.00,VWS V13.01,2013-04-24 23:10:00,
2013-04-24 19:15:00,67.9,52.1,29.73,SW,224,7.0,9.0,57,0.00,,---,0.00,VWS V13.01,2013-04-24 23:15:00,
2013-04-24 19:20:00,67.8,52.0,29.73,SW,222,0.0,10.0,57,0.00,,---,0.00,VWS V13.01,2013-04-24 23:20:00,
2013-04-24 19:25:00,67.6,52.3,29.73,SSW,211,3.0,10.0,58,0.00,,---,0.00,VWS V13.01,2013-04-24 23:25:00,
2013-04-24 19:30:00,67.4,51.7,29.73,SSW,213,0.0,6.0,57,0.00,,---,0.00,VWS V13.01,2013-04-24 23:30:00,
2013-04-24 19:35:00,67.4,52.1,29.73,SW,230,1.0,10.0,58,0.00,,---,0.00,VWS V13.01,2013-04-24 23:35:00,
2013-04-24 19:40:00,67.1,51.8,29.73,WSW,242,0.0,10.0,58,0.00,,---,0.00,VWS V13.01,2013-04-24 23:40:00,
2013-04-24 19:45:00,67.1,51.8,29.74,West,260,0.0,5.0,58,0.00,,---,0.00,VWS V13.01,2013-04-24 23:45:00,
2013-04-24 19:50:00,66.9,51.7,29.74,West,279,0.0,5.0,58,0.00,,---,0.00,VWS V13.01,2013-04-24 23:50:00,
2013-04-24 19:55:00,66.8,52.0,29.74,West,271,0.0,5.0,59,0.00,,---,0.00,VWS V13.01,2013-04-24 23:55:00,
2013-04-24 20:00:00,66.6,51.8,29.75,SW,235,0.0,3.0,59,0.00,,---,0.00,VWS V13.01,2013-04-25 00:00:00,
2013-04-24 20:05:00,66.3,52.0,29.75,WSW,257,0.0,4.0,60,0.00,,---,0.00,VWS V13.01,2013-04-25 00:05:00,
2013-04-24 20:10:00,65.6,52.7,29.75,SSW,211,4.0,6.0,63,0.00,,---,0.00,VWS V13.01,2013-04-25 00:10:00,
2013-04-24 20:15:00,64.8,52.8,29.75,SSW,213,3.0,3.0,65,0.00,,---,0.00,VWS V13.01,2013-04-25 00:15:00,
2013-04-24 20:20:00,64.2,52.6,29.75,SSW,213,0.0,3.0,66,0.00,,---,0.00,VWS V13.01,2013-04-25 00:20:00,
2013-04-24 20:25:00,63.5,52.4,29.75,South,171,2.0,5.0,67,0.00,,---,0.00,VWS V13.01,2013-04-25 00:25:00,
2013-04-24 20:30:00,63.2,52.5,29.75,SSW,195,0.0,1.0,68,0.00,,---,0.00,VWS V13.01,2013-04-25 00:30:00,
2013-04-24 20:35:00,62.7,52.4,29.75,South,178,4.0,5.0,69,0.00,,---,0.00,VWS V13.01,2013-04-25 00:35:00,
2013-04-24 20:40:00,62.3,52.0,29.75,South,187,3.0,8.0,69,0.00,,---,0.00,VWS V13.01,2013-04-25 00:40:00,
2013-04-24 20:45:00,62.1,52.2,29.76,SSW,201,0.0,3.0,70,0.00,,---,0.00,VWS V13.01,2013-04-25 00:45:00,
2013-04-24 20:50:00,62.0,52.1,29.76,South,186,1.0,9.0,70,0.00,,---,0.00,VWS V13.01,2013-04-25 00:50:00,
2013-04-24 20:55:00,61.8,51.9,29.76,South,188,0.0,10.0,70,0.00,,---,0.00,VWS V13.01,2013-04-25 00:55:00,
2013-04-24 21:00:00,61.5,52.0,29.76,SSW,202,0.0,4.0,71,0.00,,---,0.00,VWS V13.01,2013-04-25 01:00:00,
2013-04-24 21:05:00,61.5,52.0,29.76,SSW,207,0.0,7.0,71,0.00,,---,0.00,VWS V13.01,2013-04-25 01:05:00,
2013-04-24 21:10:00,61.3,52.2,29.76,SSW,200,0.0,9.0,72,0.00,,---,0.00,VWS V13.01,2013-04-25 01:10:00,
2013-04-24 21:15:00,61.0,51.9,29.77,SSW,201,0.0,1.0,72,0.00,,---,0.00,VWS V13.01,2013-04-25 01:15:00,
2013-04-24 21:20:00,60.9,52.2,29.77,South,191,2.0,6.0,73,0.00,,---,0.00,VWS V13.01,2013-04-25 01:20:00,
2013-04-24 21:25:00,60.7,52.0,29.77,South,187,5.0,7.0,73,0.00,,---,0.00,VWS V13.01,2013-04-25 01:25:00,
2013-04-24 21:30:00,60.5,51.8,29.77,SSW,198,0.0,0.0,73,0.00,,---,0.00,VWS V13.01,2013-04-25 01:30:00,
2013-04-24 21:35:00,60.4,52.1,29.77,SSW,210,0.0,4.0,74,0.00,,---,0.00,VWS V13.01,2013-04-25 01:35:00,
2013-04-24 21:40:00,60.2,51.9,29.77,SSW,210,0.0,4.0,74,0.00,,---,0.00,VWS V13.01,2013-04-25 01:40:00,
2013-04-24 21:45:00,60.2,51.9,29.78,SW,220,0.0,0.0,74,0.00,,---,0.00,VWS V13.01,2013-04-25 01:45:00,
2013-04-24 21:49:00,60.1,51.8,29.78,SW,219,0.0,0.0,74,0.00,,---,0.00,VWS V13.01,2013-04-25 01:49:00,
2013-04-24 21:54:00,59.9,52.0,29.78,SSW,196,0.0,5.0,75,0.00,,---,0.00,VWS V13.01,2013-04-25 01:54:00,
2013-04-24 21:59:00,59.9,52.0,29.77,SSW,200,2.0,2.0,75,0.00,,---,0.00,VWS V13.01,2013-04-25 01:59:00,
2013-04-24 22:04:00,59.8,51.9,29.77,SSW,205,0.0,4.0,75,0.00,,---,0.00,VWS V13.01,2013-04-25 02:04:00,
2013-04-24 22:09:00,59.8,52.2,29.77,SSW,213,0.0,4.0,76,0.00,,---,0.00,VWS V13.01,2013-04-25 02:09:00,
2013-04-24 22:14:00,59.8,52.2,29.78,SW,218,3.0,4.0,76,0.00,,---,0.00,VWS V13.01,2013-04-25 02:14:00,
2013-04-24 22:19:00,59.9,52.0,29.78,SSW,210,0.0,5.0,75,0.00,,---,0.00,VWS V13.01,2013-04-25 02:19:00,
2013-04-24 22:24:00,59.8,51.9,29.78,SW,219,4.0,5.0,75,0.00,,---,0.00,VWS V13.01,2013-04-25 02:24:00,
2013-04-24 22:29:00,59.6,52.0,29.78,SW,220,0.0,0.0,76,0.00,,---,0.00,VWS V13.01,2013-04-25 02:29:00,
2013-04-24 22:34:00,59.5,51.9,29.78,SW,222,0.0,3.0,76,0.00,,---,0.00,VWS V13.01,2013-04-25 02:34:00,
2013-04-24 22:39:00,59.5,51.9,29.78,SSW,212,0.0,3.0,76,0.00,,---,0.00,VWS V13.01,2013-04-25 02:39:00,
2013-04-24 22:44:00,59.3,52.1,29.78,SW,224,0.0,4.0,77,0.00,,---,0.00,VWS V13.01,2013-04-25 02:44:00,
2013-04-24 22:49:00,59.5,52.3,29.78,SSW,211,0.0,5.0,77,0.00,,---,0.00,VWS V13.01,2013-04-25 02:49:00,
2013-04-24 22:54:00,59.5,52.3,29.78,SSW,207,0.0,5.0,77,0.00,,---,0.00,VWS V13.01,2013-04-25 02:54:00,
2013-04-24 22:59:00,59.5,52.6,29.77,SSW,213,0.0,0.0,78,0.00,,---,0.00,VWS V13.01,2013-04-25 02:59:00,
2013-04-24 23:04:00,59.6,52.4,29.77,SW,223,0.0,3.0,77,0.00,,---,0.00,VWS V13.01,2013-04-25 03:04:00,
2013-04-24 23:09:00,59.8,52.6,29.77,SW,222,0.0,3.0,77,0.00,,---,0.00,VWS V13.01,2013-04-25 03:09:00,
2013-04-24 23:14:00,60.1,52.9,29.77,SW,235,0.0,0.0,77,0.00,,---,0.00,VWS V13.01,2013-04-25 03:14:00,
2013-04-24 23:19:00,60.2,53.0,29.77,SSW,211,0.0,6.0,77,0.00,,---,0.00,VWS V13.01,2013-04-25 03:19:00,
2013-04-24 23:24:00,60.5,52.9,29.77,SW,223,0.0,6.0,76,0.00,,---,0.00,VWS V13.01,2013-04-25 03:24:00,
2013-04-24 23:29:00,60.5,52.9,29.77,SW,220,3.0,4.0,76,0.00,,---,0.00,VWS V13.01,2013-04-25 03:29:00,
2013-04-24 23:34:00,60.5,53.3,29.77,SW,219,0.0,4.0,77,0.00,,---,0.00,VWS V13.01,2013-04-25 03:34:00,
2013-04-24 23:39:00,60.5,53.3,29.77,SSW,211,0.0,4.0,77,0.00,,---,0.00,VWS V13.01,2013-04-25 03:39:00,
2013-04-24 23:44:00,60.5,53.3,29.76,SW,222,0.0,3.0,77,0.00,,---,0.00,VWS V13.01,2013-04-25 03:44:00,
2013-04-24 23:49:00,60.7,53.5,29.76,WSW,250,0.0,5.0,77,0.00,,---,0.00,VWS V13.01,2013-04-25 03:49:00,
2013-04-24 23:54:00,61.0,53.8,29.76,SW,229,0.0,5.0,77,0.00,,---,0.00,VWS V13.01,2013-04-25 03:54:00,
2013-04-24 23:59:00,61.5,53.5,29.77,WSW,246,3.0,7.0,75,0.00,,---,0.00,VWS V13.01,2013-04-25 03:59:00,